OAO 3 (COPERNICUS) (6153 NORAD) Tracking and Keplerian Element Data

This shows tracking and keplerian element data for the satellite.

Feedback or suggestion? Click here.




ElementValue
Catalog6153
NameOAO 3 (COPERNICUS)
Epoch Orbit73116
Epoch Day12.72120596
Epoch Year2024
RAAN96.8543
Inclination35.0066
Eccentricity0.0007103
Argument of Perigee212.3391
Mean Anonmoly296.6126
Mean Motion14.58699321
Decay Rate7.43E-06
L11 06153U 72065A 24012.72120596 .00000743 00000+0 16123-3 0 9995
L22 06153 35.0066 96.8543 0007103 212.3391 296.6126 14.58699321731162



Live tracking and technical data element details for OAO 3 (COPERNICUS) (NORAD 6153). OAO 3 (COPERNICUS) can be tracked NOW for your location showing map with azimuth and elevation plus other details from your city location.







IsCatalogInMostPopularTable: catalog: 6153, numindb: 590
Update: records affected: 1



GetName: 6153 OAO 3 (COPERNICUS)

Hit Count: updated at: Mon, 15 Apr 2024 00:37:16 GMT